Home > Weather > Bellinzona > Past weeks

Flag for Switzerland Weather for the Past 2 Weeks in Bellinzona, Ticino, Switzerland

Now
59 °F

Refreshingly cool.


Feels Like: 59 °F
Forecast: 47 / 72 °F
Wind: 2 mph from North

Location: Locarno-Magadino

Current Time: May 6, 2016 at 11:28:30 AM

Latest Report: May 6, 2016 at 10:00 AM


Visibility: N/A

Pressure: 30.11 "Hg

Humidity: 50%

Dew Point: 41 °F

Location of BellinzonaLocation

Historic Weather in Bellinzona — Graph

°F

Bellinzona Temperature Yesterday

Maximum temperature yesterday: 68 °F (at 5:00 PM)
Minimum temperature yesterday: 49 °F (at 11:00 PM)
Average temperature yesterday: 59 °F

High & Low Weather Summary for the Past Weeks

 TemperatureHumidityPressure
High74 °F (May 2, 4:00 PM)100% (Apr 23, 1:00 AM)30.32 "Hg (Apr 23, 1:00 AM)
Low36 °F (Apr 28, 5:00 AM)12% (Apr 27, 11:00 AM)29.57 "Hg (Apr 23, 7:00 PM)
Average57 °F54%29.93 "Hg
* Reported Apr 21 10:00 AM — May 6 10:00 AM, Bellinzona, Weather by CustomWeather, © 2016

Note: Actual official high and low records may vary slightly from our data, if they occured in-between our weather recording intervals... More about our weather records

Advertising

Bellinzona Weather History for the Previous 24 Hours

Scroll right to see more
 ConditionsComfort  
Time TempWeatherWind HumidityBarometerVisibility
10:00 AM
Fri, May 6
59 °FRefreshingly cool.2 mph50%30.11 "HgN/A
9:00 AM56 °FRefreshingly cool.3 mph57%30.14 "HgN/A
8:00 AM50 °FCool.1 mph76%30.18 "HgN/A
7:00 AM43 °FQuite cool.1 mph90%30.20 "HgN/A
6:00 AM44 °FQuite cool.1 mph85%30.19 "HgN/A
5:00 AM42 °FQuite cool.1 mph95%30.20 "HgN/A
4:00 AM44 °FQuite cool.No wind91%30.20 "HgN/A
3:00 AM45 °FQuite cool.1 mph87%30.21 "HgN/A
2:00 AM45 °FCool.1 mph88%30.22 "HgN/A
1:00 AM46 °FCool.1 mph83%30.21 "HgN/A
12:00 AM48 °FCool.No wind80%30.19 "HgN/A
11:00 PM
Thu, May 5
49 °FCool.1 mph78%30.18 "HgN/A
10:00 PM54 °FCool.1 mph63%30.15 "HgN/A
9:00 PM56 °FCool.3 mph61%30.13 "HgN/A
8:00 PM63 °FMild.6 mph41%30.11 "HgN/A
7:00 PM66 °FMild.6 mph37%30.11 "HgN/A
6:00 PM67 °FMild.8 mph36%30.12 "HgN/A
5:00 PM68 °FMild.9 mph36%30.13 "HgN/A
4:00 PM68 °FMild.9 mph37%30.14 "HgN/A
3:00 PM67 °FMild.10 mph38%30.16 "HgN/A
2:00 PM65 °FMild.10 mph43%30.18 "HgN/A
1:00 PM63 °FMild.8 mph39%30.19 "HgN/A
12:00 PM61 °FRefreshingly cool.10 mph34%30.21 "HgN/A
11:00 AM60 °FRefreshingly cool.5 mph39%30.21 "HgN/A
Weather by CustomWeather, © 2016

See weather overviewHow to use our weather pages